Theta_e
318 317 316 316 315 314 313 313 313 313 314 311 304 301 299 298 298 297 297 297 297 297 297 296 296 295 295 295 295 295 294 294 294 294 294 294 294 293 293 293 292 291
317 316 315 315 314 313 312 312 313 313 314 309 302 300 299 298 297 297 297 297 296 296 296 295 295 295 295 295 295 295 294 294 294 294 294 294 294 293 293 292 292 291
316 315 314 313 313 311 311 312 313 314 313 307 301 299 298 297 297 296 296 296 296 296 295 295 294 294 294 294 294 294 294 293 293 294 294 294 293 293 293 292 292 291
315 314 313 312 311 310 310 311 312 313 311 305 300 298 298 297 296 296 296 296 296 296 295 294 294 294 294 294 293 293 293 292 293 293 293 293 293 293 292 292 291 291
314 313 312 312 311 310 310 311 312 312 309 304 299 298 297 297 296 295 296 296 295 295 295 294 294 294 294 293 293 292 292 291 292 292 292 292 292 292 292 291 291 290
314 312 312 312 310 310 310 311 311 311 308 303 299 297 297 296 295 295 295 295 295 295 295 294 294 294 293 293 292 291 291 291 291 292 292 291 291 291 291 291 290 290
314 312 312 311 309 310 310 310 310 309 306 302 298 297 297 296 295 295 295 295 295 295 295 294 294 294 293 292 292 291 291 291 291 291 291 291 291 291 291 290 290 289
313 312 311 310 309 310 310 310 309 307 304 301 298 297 296 296 295 295 294 294 294 294 294 294 294 293 293 292 292 291 291 291 291 291 291 291 291 291 290 290 290 289
311 312 311 309 309 310 310 310 308 306 303 299 297 296 296 295 294 294 294 294 294 294 294 293 293 293 292 292 291 291 291 290 290 291 290 291 291 291 290 290 289 289
310 310 310 309 309 310 310 310 308 305 302 298 296 296 296 295 294 294 294 294 294 294 293 293 293 293 292 292 291 291 290 290 290 290 290 291 291 291 290 290 289 289
309 309 309 309 309 310 310 309 307 304 301 297 295 295 295 295 294 294 294 294 293 293 293 293 293 293 292 292 291 290 290 290 290 290 291 292 292 291 290 289 289 289
309 309 310 309 310 310 310 309 307 304 300 297 295 295 295 294 294 294 294 293 293 293 293 293 293 293 292 292 291 290 290 290 290 291 293 293 293 291 290 289 289 288
309 309 310 310 310 310 310 309 307 304 299 296 295 295 295 295 294 294 294 293 293 293 293 293 293 292 292 292 291 290 290 290 290 292 294 295 294 292 290 289 289 288
309 309 310 310 310 310 310 309 308 304 299 296 295 295 295 295 294 294 294 293 293 293 293 293 292 292 292 292 291 290 290 290 291 293 294 295 295 293 290 289 288 288
309 310 310 310 310 310 309 309 308 304 300 296 294 295 295 294 294 294 293 293 293 292 292 292 292 292 292 292 291 290 290 290 292 293 294 295 295 294 291 290 288 288
308 309 310 310 310 310 309 309 307 304 300 296 294 294 294 294 294 294 293 293 292 293 293 293 293 293 292 291 290 290 291 291 292 292 293 294 295 295 293 291 289 288
307 309 310 309 310 309 309 308 306 304 300 296 294 294 294 294 294 293 293 293 292 292 293 293 293 292 292 291 291 291 291 291 291 292 293 293 294 295 294 292 290 289
307 309 309 309 309 309 309 307 305 303 299 296 294 294 294 294 294 293 293 293 292 292 292 292 292 292 292 292 292 292 291 291 291 291 292 293 293 294 294 293 291 290
307 308 309 309 309 308 308 306 304 302 299 296 294 293 293 293 293 293 293 293 293 292 292 292 292 292 292 293 293 292 291 291 291 291 292 292 293 294 294 293 292 291
306 307 308 308 308 308 307 306 303 301 298 296 294 293 293 293 293 293 293 293 293 292 292 292 291 292 293 293 292 292 292 291 291 291 291 291 292 293 293 293 293 291
306 307 307 307 307 307 307 306 304 302 299 296 294 293 293 293 293 293 293 293 293 292 293 292 291 292 293 292 292 292 292 291 291 292 291 291 292 292 292 292 293 292
306 307 307 307 307 307 306 306 306 304 302 299 296 295 294 293 293 293 293 293 293 293 293 292 292 292 293 292 292 292 292 292 292 292 291 291 291 291 292 293 292 292
305 307 307 307 307 307 307 307 306 306 304 303 300 298 296 295 293 292 292 292 292 293 293 292 292 293 293 292 292 292 293 292 292 292 291 290 290 291 292 293 292 291
304 305 306 307 307 307 307 307 307 306 305 303 302 300 299 298 295 293 292 292 292 292 293 292 292 293 293 292 293 293 293 292 292 291 290 289 290 290 291 292 292 291
302 303 304 305 306 306 306 306 306 305 304 303 301 300 299 297 295 292 291 291 292 292 293 292 292 292 293 293 293 293 292 291 290 289 289 288 289 290 290 291 291 291
301 301 302 303 304 305 305 305 305 304 302 300 299 298 297 295 294 293 292 292 292 293 293 292 292 292 293 293 293 292 291 289 288 288 288 288 288 289 290 290 290 290
Wind_Speed
30 32 31 25 22 22 23 27 31 31 31 32 35 35 33 33 32 31 30 29 27 26 24 23 22 20 20 19 17 16 15 14 13 12 10 9 8 7 7 6 6 5
33 32 29 25 25 24 25 28 30 30 31 33 35 35 33 33 32 31 30 29 28 26 24 23 21 20 19 18 17 16 15 14 13 12 10 9 9 8 8 7 7 7
34 31 28 28 28 26 26 29 29 29 31 34 36 35 33 33 32 32 31 29 28 26 24 23 21 20 19 18 17 16 15 14 13 11 10 10 10 9 9 8 8 8
33 30 29 30 29 27 27 30 31 31 32 35 37 36 34 34 33 32 31 30 28 26 24 22 21 21 20 19 18 17 16 14 13 12 11 11 10 9 9 9 9 9
32 32 32 32 31 29 29 31 32 32 34 37 38 36 35 34 33 32 32 30 28 25 24 22 22 21 20 19 18 17 15 14 13 12 11 10 10 9 8 8 9 9
33 33 33 32 30 30 31 32 32 33 35 38 39 37 36 34 33 33 32 30 27 25 24 23 22 21 20 19 18 16 15 13 12 11 10 9 9 8 8 8 9 9
34 34 34 32 31 31 32 32 33 35 36 39 39 38 36 35 34 33 31 29 27 25 24 23 22 21 20 19 17 16 14 13 12 10 9 9 8 7 8 8 9 9
35 35 34 32 32 33 32 33 34 36 38 40 40 38 36 35 34 33 31 28 26 25 24 23 22 20 19 18 16 15 13 12 11 10 9 8 7 8 8 9 10 10
36 36 35 33 33 34 33 34 35 37 39 41 41 39 36 35 34 33 30 28 27 26 25 23 22 20 18 17 15 14 12 11 11 9 8 7 7 8 9 10 11 10
36 36 36 36 35 35 34 34 36 38 40 42 41 39 37 35 34 32 31 29 28 27 25 24 22 20 18 17 15 13 12 11 10 9 7 7 8 10 11 11 12 12
37 37 38 38 37 35 35 35 36 38 41 42 42 39 37 36 35 33 32 30 29 27 25 23 22 20 18 17 16 14 13 12 10 9 8 9 10 11 12 13 13 13
39 39 38 38 38 36 35 34 35 38 41 43 42 40 38 37 35 34 33 31 29 27 26 24 22 20 19 17 16 15 14 12 11 9 9 10 11 12 13 14 15 15
40 39 39 39 38 37 35 34 35 38 41 43 42 40 39 37 36 34 33 31 30 28 26 24 22 21 20 18 17 16 14 13 12 11 11 13 13 13 14 16 16 16
40 39 39 38 38 37 36 35 36 38 41 43 43 41 39 38 36 35 34 32 30 29 27 26 24 22 20 19 18 17 16 15 14 14 15 16 15 15 15 16 17 17
41 40 39 39 38 37 36 36 36 37 40 43 44 42 40 39 37 36 35 33 32 30 29 27 25 23 22 21 19 18 17 17 17 17 18 17 18 17 16 17 18 18
42 41 40 39 39 37 36 36 36 38 41 44 45 44 42 41 39 38 36 35 33 32 30 28 27 25 24 22 20 20 20 20 20 20 20 19 20 20 19 19 19 19
42 41 40 39 38 37 36 36 36 39 42 44 46 46 44 43 41 40 38 36 34 32 31 30 29 27 25 23 23 23 23 23 23 23 23 23 22 22 21 21 21 21
42 41 40 39 38 37 36 36 37 40 43 46 47 47 46 44 42 40 38 36 35 34 33 32 29 27 26 25 25 26 26 26 26 26 26 26 24 23 23 23 24 23
40 41 40 39 38 37 36 36 38 40 43 45 47 47 45 44 42 40 39 38 37 36 34 32 30 29 28 28 28 28 27 28 29 29 29 29 26 24 24 26 27 27
38 40 40 39 39 37 36 36 36 38 41 43 44 45 45 44 42 42 41 40 38 36 34 33 32 31 31 30 30 30 30 30 31 32 32 31 28 26 26 29 29 29
39 39 40 40 39 37 36 35 35 35 37 40 41 43 43 43 44 43 42 40 38 36 35 35 35 33 32 33 33 32 32 33 33 34 34 32 31 29 30 31 29 28
41 40 40 39 38 37 36 36 35 35 36 37 40 41 43 44 45 44 42 41 39 38 37 37 37 35 34 35 35 34 35 36 36 37 36 35 34 33 33 33 29 28
40 40 40 39 38 38 37 36 36 36 36 38 40 41 42 43 43 44 44 43 41 39 39 40 39 37 36 38 38 37 37 38 38 39 38 38 37 35 34 32 29 30
38 39 39 39 38 38 37 36 36 37 37 38 38 38 38 39 42 44 45 44 42 40 40 41 40 39 39 40 40 39 38 39 40 40 41 40 39 37 34 32 31 33
33 35 36 36 35 35 35 34 35 35 35 35 34 34 34 36 39 42 43 43 42 41 41 42 42 42 42 42 41 39 38 40 41 42 43 43 42 39 36 35 34 34
26 27 29 29 29 30 30 30 31 31 31 31 30 30 31 32 34 38 40 42 43 42 42 43 44 45 44 42 41 39 40 42 43 44 46 46 44 42 40 39 37 36
Wind_Direction
218 209 207 217 230 237 231 218 212 210 211 206 198 194 192 190 190 191 191 191 194 195 195 196 196 194 195 195 194 194 192 192 195 199 204 207 212 221 228 235 240 248
207 205 214 223 230 234 225 215 214 214 212 207 201 197 196 195 194 194 194 195 196 196 196 197 197 196 198 199 199 200 197 198 201 204 209 215 222 228 233 240 245 250
204 211 221 225 230 231 219 212 215 216 214 208 203 200 200 199 198 196 197 198 198 198 197 197 198 198 200 201 202 202 200 201 205 209 214 219 224 229 232 238 244 248
212 220 226 227 230 226 217 212 214 215 214 209 205 203 203 202 201 200 200 200 200 199 198 198 200 201 201 202 203 202 200 201 205 210 215 219 222 227 231 237 243 246
220 224 224 225 227 222 214 213 215 216 213 210 207 206 206 205 204 203 203 203 201 200 200 200 202 204 204 204 204 203 202 203 207 210 215 220 222 225 231 240 245 249
221 222 222 223 224 218 213 214 217 217 214 211 209 208 209 207 206 207 207 206 203 201 202 204 206 208 207 206 205 203 203 208 214 215 218 224 227 232 239 245 250 256
220 221 223 226 223 215 214 216 217 217 215 212 211 211 211 209 208 209 209 208 205 204 204 207 209 210 209 208 206 205 205 210 218 223 225 230 236 244 250 255 259 262
220 221 224 225 220 215 215 216 217 217 215 213 212 212 212 211 211 211 210 208 207 207 207 208 210 211 209 208 207 207 209 214 221 226 230 237 247 257 262 265 264 266
221 222 225 223 218 216 217 217 218 217 215 214 214 213 213 212 212 212 211 210 208 209 209 209 209 209 207 207 208 208 210 217 224 227 232 245 257 266 270 269 268 270
222 224 225 223 219 219 220 219 218 217 216 215 214 214 214 213 213 213 213 212 211 210 209 210 209 207 207 206 206 207 208 215 223 227 237 253 265 271 273 272 273 275
224 224 223 221 220 221 222 221 219 218 217 216 215 215 215 215 214 214 214 213 212 211 211 211 209 208 208 206 205 206 207 212 221 228 244 262 268 272 274 274 275 275
224 223 221 221 221 223 224 223 220 219 217 216 216 216 216 216 217 217 216 215 213 212 212 211 210 208 208 206 205 206 207 213 220 230 251 266 268 268 270 272 272 272
224 222 222 222 224 226 226 225 222 220 218 217 216 217 218 218 218 219 218 216 214 212 212 211 211 209 208 206 205 206 210 214 220 237 259 269 267 264 266 270 271 271
224 223 224 225 227 228 228 227 224 220 218 218 217 219 219 220 220 221 219 217 215 213 213 213 211 210 209 209 208 208 212 216 226 246 263 271 269 262 261 267 270 271
223 224 225 226 228 229 229 228 225 221 218 218 219 220 221 221 222 222 220 218 216 214 214 214 214 214 214 213 212 212 216 223 235 250 261 272 275 267 258 261 267 269
223 225 226 227 228 229 230 229 226 221 218 218 219 221 221 221 221 221 220 219 218 217 217 217 218 219 216 213 214 217 223 230 240 248 258 272 280 275 263 257 261 265
222 224 226 228 228 229 230 229 226 222 219 219 220 221 222 222 222 222 221 220 220 220 221 222 222 219 216 216 221 226 229 234 239 246 256 268 279 282 272 259 255 259
221 222 224 225 226 227 228 227 225 222 219 219 220 222 223 223 222 223 223 222 222 222 223 224 224 221 220 227 232 233 234 236 239 246 256 265 275 284 281 269 258 255
223 223 225 225 225 227 227 226 225 223 221 221 221 223 225 225 225 225 225 224 224 224 224 225 225 224 229 236 237 235 236 239 242 249 257 263 271 282 288 281 267 257
225 225 227 227 226 227 227 227 227 225 224 223 224 225 227 228 228 227 227 227 226 226 228 229 228 229 236 240 237 237 241 242 246 253 258 261 267 277 289 288 274 262
227 226 227 228 227 229 229 230 229 228 227 227 227 228 230 231 231 231 230 230 229 229 232 231 230 233 240 241 238 242 245 246 250 256 258 259 262 270 285 290 280 269
229 228 229 229 229 230 231 232 232 231 230 230 229 230 231 232 233 233 233 233 232 233 235 233 232 237 243 242 241 246 249 250 255 259 258 257 258 267 284 291 281 273
231 230 230 230 230 231 232 234 235 234 233 232 232 232 233 234 234 234 234 234 233 235 237 236 237 242 246 244 245 250 253 254 258 260 257 255 258 268 286 291 279 272
232 231 231 231 232 233 234 235 237 237 236 236 235 236 237 237 236 234 233 233 234 239 241 240 242 247 248 248 250 256 258 256 258 259 255 254 258 268 284 291 283 275
233 232 233 233 234 236 237 238 240 240 240 240 240 240 240 239 238 235 234 234 237 242 244 244 246 249 250 252 255 259 258 254 254 254 252 253 258 266 277 288 289 283
229 230 232 234 236 238 239 240 242 242 243 242 241 240 240 239 237 236 235 237 240 244 245 246 248 251 253 255 257 257 254 250 249 249 251 254 259 265 272 281 287 288